Regional Weather Roundup
Issued by NWS

Home | Current Version | Previous Version | Text Only | Print | Product List | Glossary Off
Versions: 1 2 3 4 5 6 7 8 9 10 11 12 13 14 15 16 17 18 19 20 21 22 23 24 25 26 27 28 29 30 31 32 33 34 35 36 37 38 39 40 41 42 43 44 45 46 47 48 49 50

000
ASUS45 KPSR 030100
RWRAZ

ARIZONA HOURLY REGIONAL WEATHER ROUNDUP
NATIONAL WEATHER SERVICE PHOENIX AZ
600 PM MST WED SEP 02 2015

NOTE: FAIR INDICATES FEW OR NO CLOUDS BELOW 12,000 FEET WITH NO
SIGNIFICANT WEATHER AND/OR OBSTRUCTIONS TO VISIBILITY.

AZZ001>003-036-030200-
NORTHWEST ARIZONA

CITY           SKY/WX    TMP DP  RH WIND       PRES   REMARKS
KINGMAN        PTSUNNY   88  34  14 SW15      29.96S
$$

AZZ004>008-015-016-018-030200-
NORTH CENTRAL ARIZONA

CITY           SKY/WX    TMP DP  RH WIND       PRES   REMARKS
GRAND CANYON   MOSUNNY   77  37  23 SW10      30.19F
WILLIAMS       SUNNY     73  37  27 SW13G21   30.27R
PRESCOTT       MOSUNNY   81  37  20 SW12      30.10S
FLAGSTAFF      NOT AVBL
PAYSON         CLEAR     81  36  19 SW8       30.15S
PAGE           MOCLDY    89  44  20 CALM      29.97F
$$

AZZ009>014-017-030200-
NORTHEAST ARIZONA

CITY           SKY/WX    TMP DP  RH WIND       PRES   REMARKS
WINSLOW        NOT AVBL
SAINT JOHNS    CLOUDY    64  58  80 S6        30.21R
WINDOW ROCK    CLOUDY    66  49  54 N7        30.27R
SHOW LOW       MOCLDY    66  50  55 NE10G17   30.26R
$$

AZZ023-030200-
GREATER PHOENIX AREA

CITY           SKY/WX    TMP DP  RH WIND       PRES   REMARKS
PHOENIX        PTSUNNY   99  49  18 NE13G26   29.79F
GLENDALE       PTSUNNY  100  48  17 VRB5      29.81F
DEER VALLEY    MOSUNNY   96  49  20 CALM      29.83F
SCOTTSDALE     PTCLDY    96  47  18 CALM      29.85F
MESA-GATEWAY   MOCLDY    97  54  23 NW7       29.85S
CHANDLER       MOCLDY    99  55  23 NE7       29.81F
$$

AZZ027-028-030200-
SOUTHWEST MARICOPA COUNTY AND PINAL COUNTY

CITY           SKY/WX    TMP DP  RH WIND       PRES   REMARKS
CASA GRANDE    MOCLDY    99  52  20 SW9       29.82F
$$

AZZ503-504-507>509-030200-
SOUTHEAST ARIZONA

CITY           SKY/WX    TMP DP  RH WIND       PRES   REMARKS
TUCSON         CLOUDY    89  54  30 SE13      29.96R
DAVIS-MONTHAN  MOCLDY    86  60  40 SE13      29.95R
RYAN FIELD     CLEAR     93  57  29 E12       29.93S
NOGALES        CLOUDY    71  60  68 NE10G21   30.06F THUNDER
SIERRA VISTA   CLOUDY    71  62  75 N3        30.14R
SAFFORD        CLOUDY    77  58  51 E12       30.01F
$$

AZZ020-021-025-026-031-030200-
SOUTHWEST ARIZONA

CITY           SKY/WX    TMP DP  RH WIND       PRES   REMARKS
YUMA           PTSUNNY  100  47  16 S9        29.73S
$$

CAZ031-033-041-043-047-048-061-030200-
SOUTHERN CALIFORNIA

CITY           SKY/WX    TMP DP  RH WIND       PRES   REMARKS
DOWNTOWN L.A.  SUNNY     74  58  57 CALM      29.88F
L.A. AIRPORT   MOSUNNY   70  60  70 SW12      29.90S
SAN DIEGO      PTSUNNY   73  58  59 W7        29.92F
BURBANK        SUNNY     78  57  48 S10       29.88
ONTARIO        MOSUNNY   81  57  43 W15       29.87F
RIVERSIDE      MOSUNNY   80  58  46 W12       29.87S
PALM SPRINGS   MOSUNNY   98  39  13 NW15      29.75F
EL CENTRO NAS  MOSUNNY  102  47  15 NE5       29.71F
IMPERIAL       MOSUNNY  102  47  15 CALM      29.69F
BLYTHE         PTSUNNY  100  47  16 S10       29.73F
$$

NVZ020-UTZ003-030200-
SOUTHERN NEVADA-UTAH

CITY           SKY/WX    TMP DP  RH WIND       PRES   REMARKS
LAS VEGAS      NOT AVBL
SALT LAKE CITY PTSUNNY   89  38  16 S14G21    29.85S
$$

NMZ009-TXZ055-030200-
NEW MEXICO-WEST TEXAS

CITY           SKY/WX    TMP DP  RH WIND       PRES   REMARKS
ALBUQUERQUE    CLOUDY    77  44  30 CALM      30.13R
EL PASO        MOCLDY    94  43  17 SE8       29.96R
$$


........................KEY........................
SKY/WX - SKY CONDITION/WEATHER
TMP    - TEMPERATURE IN FAHRENHEIT
DP     - DEW POINT IN FAHRENHEIT
RH     - RELATIVE HUMIDITY IN PERCENT
WIND   - DIRECTION AND SPEED IN MILES PER HOUR (MPH)
VRB    - VARIABLE WIND DIRECTION
PRES   - MEAN SEA LEVEL PRESSURE IN INCHES OF MERCURY
         F - FALLING PRESSURE   R - RISING PRESSURE
         S - STEADY PRESSURE
VSB    - VISIBILITY IN MILES
HX     - HEAT INDEX IN FAHRENHEIT
WCI    - WIND CHILL INDEX IN FAHRENHEIT
TC     - TEMPERATURE IN CELSIUS WHICH IS ALSO KNOWN AS
         TEMPERATURE IN CENTIGRADE
AFB    - AIR FORCE BASE
         LUKE AFB IS LUKE AIR FORCE BASE
         DAVIS-MONTHAN IS DAVIS-MONTHAN AIR FORCE BASE
NAS    - NAVAL AIR STATION
         EL CENTRO NAS IS EL CENTRO NAVAL AIR STATION
N/A    - NOT AVAILABLE




USA.gov is the U.S. government's official web portal to all federal, state and local government web resources and services.